sat.trackr.live / text

‹ back to catalog

STARLINK-33834

NORAD 63586 · 2025-076T

PAYLOAD ACTIVE UNKNOWN

§ Identity

Operator
Country
US
Launch date
2025-04-14
Launch site
AFETR
Launch vehicle
Mass (kg)
RCS (m²)

Purposes: comms

External: N2YO · Heavens-Above · Gunter

§ Orbital elements

Epoch: 2026-05-25T00:27:29.063232Z

Period
94.27 min
Inclination
43.0000°
Eccentricity
0.0001319
Mean motion
15.27585791 rev/d
Perigee alt
482.1 km
Apogee alt
483.9 km
Semi-major
6,861.2 km
B*
4.5704e-4
RAAN
250.6522°
Arg perigee
240.0558°
Mean anomaly
120.0163°
Rev number
6,350

§ Raw data

STARLINK-338341 63586U 25076T   26145.01908638  .00012338  00000+0  45704-3 0  99902 63586  43.0000 250.6522 0001319 240.0558 120.0163 15.27585791 63504

JSON: /api/v1/satellites/63586 · /tle

For live sub-satellite position, see the globe view (requires WebGL).

§ Visibility from observer

Set your observer location to see the next 7 days of passes ≥ 10°. The values pass through the URL so the page stays shareable.

No JS? Fill the form by hand. The geolocation button needs JavaScript.